Terminal Aerodrome Forecast
Issued by NWS Shreveport, LA

Home | Current Version | Previous Version | Text Only | Print | Product List | Glossary On
Versions: 1 2 3 4 5 6 7 8 9 10 11 12 13 14 15 16 17 18 19 20 21 22 23 24 25 26
000
FTUS44 KSHV 270555
TAFGGG
TAF
KGGG 270555Z 2706/2806 32009KT P6SM VCTS FEW009 BKN016CB OVC030
      TEMPO 2706/2708 VRB15G30KT 2SM TSRA BKN010CB
     FM270800 18005KT 4SM BR BKN015
     FM271500 18008KT P6SM BKN030
     FM271700 19009KT P6SM SCT035
     FM280000 15005KT P6SM BKN050=

USA.gov is the U.S. government's official web portal to all federal, state and local government web resources and services.